Location: Nordegg
(52.4712°N, 116.0743°W)
Time: 15:15:29
(UTC+00:00)

Envisat - Pass Details

Date: 02 December 2021
Orbit: 764 x 766 km, 98.2° (Epoch: 26 January)

Event Time Altitude Azimuth Distance (km) Brightness Sun altitude
Rises 13:24:33 0° 12° (NNE) 3,248 6.3 -18.7°
Reaches altitude 10° 13:26:54 10° 9° (N) 2,317 5.5 -18.3°
Maximum altitude 13:31:55 61° 290° (WNW) 868 2.9 -17.6°
Drops below altitude 10° 13:36:55 10° 211° (SSW) 2,300 5.3 -16.9°
Sets 13:39:13 0° 208° (SSW) 3,222 6.1 -16.5°
